Location: Ku?niki
(51.4449°N, 17.8974°E)
Time: 03:21:10
(UTC+00:00)

OBJECT-B - Pass Details

Date: 18 September 2020
Orbit: 421 x 433 km, 97.0° (Epoch: 09 October)

Event Time Altitude Azimuth Distance (km) Brightness Sun altitude
Exits shadow 19:01:25 45° 200° (SSW) 589 1.3 -19.6°
Maximum altitude 19:02:11 63° 259° (W) 480 1.1 -19.7°
Drops below altitude 10° 19:05:25 10° 341° (NNW) 1,525 4.2 -20.1°
Sets 19:07:27 0° 345° (NNW) 2,398 5.3 -20.4°
